Location: Beuerbach
(48.1459°N, 10.9174°E)
Time: 01:51:24
(UTC+00:00)

Nadezhda 1 Rocket - Pass Details

Date: 23 May 2024
Orbit: 941 x 1004 km, 83.0° (Epoch: 19 June)

Event Time Altitude Azimuth Distance (km) Brightness Sun altitude
Rises 01:05:10 0° 348° (NNW) 3,743 7.9 -16.8°
Reaches altitude 10° 01:07:44 10° 345° (NNW) 2,790 7.1 -16.6°
Maximum altitude 01:14:03 63° 267° (W) 1,117 4.1 -16.1°
Enters shadow 01:18:19 21° 192° (SSW) 2,058 5.1 -15.7°
